パンスターズ彗星

311P/PanSTARRS (2014)

English version
Home page
Updated on November 3, 2015

---------------------------------------------------------------------

・ プロフィール

符号 311P/2013 P5
発見日 2013年8月15日
発見光度 20.9等
発見者 Pan-STARRS 1 telescope (Haleakala)

・ 写真集

・ 軌道要素

Epoch 2014 Apr. 13.0 TT = JDT 2456760.5
T 2014 Apr. 15.93112 TT                                 MPCW
q   1.9361430            (2000.0)            P               Q
n   0.30441617     Peri.  144.28192     +0.44292854     -0.89247340
a   2.1885555      Node   279.28876     +0.80115354     +0.43678753
e   0.1153329      Incl.    4.96850     +0.40245162     +0.11272925
P   3.24
From 156 observations 2010 Oct. 17-2015 Mar. 16, mean residual 0".4.

・ 光度変化

        H = 17.5  G = 0.15

---------------------------------------------------------------------

軌道要素はM.P.E.C. 2015-S97に掲載されたものです。
光度グラフはComet for Windowsで作成したものです。

---------------------------------------------------------------------

Copyright(C) Seiichi Yoshida (comet@aerith.net). All rights reserved.